User: anonymous   Login
Location: Unspecified
(0.0000°N, 0.0000°E)
Time: 03:41:48
(UTC+00:00)
Language:

Fuji - Orbit

View from above orbital plane
View from above orbital plane
View from above satellite
View from above satellite

Ground track
Ground track

The orbit data is extracted from the following two-line orbital elements,

1 16909U 86061B   24206.22626087 -.00000089  00000-0  59054-4 0  9998
2 16909  50.0146 123.8014 0011023 198.1717 318.8033 12.44479453725815
Epoch (UTC): 24 July 2024 05:25:48
Eccentricity: 0.0011023
inclination: 50.0146°
perigee height: 1479 km
apogee height: 1496 km
right ascension of ascending node: 123.8014°
argument of perigee: 198.1717°
revolutions per day: 12.44479453
mean anomaly at epoch: 318.8033°
orbit number at epoch: 72581

The dashed part of the orbit path shows where the satellite is in the earth's shadow,  

DLR